Granite Falls, MN

6:56 AM CST on December 16, 2019 (GMT -0600)
Granite Falls

Weather History for KGDB - October, 2019

Change the Weather History Date:

Wednesday, October 9, 2019

  Actual Average (KMVE) Record (KMVE)
Temperature  
Mean Temperature 66 °F -  
Max Temperature 76 °F 61 °F 91 °F (1980)
Min Temperature 55 °F 38 °F 16 °F (1964)
Growing Degree Days 16 (Base 50)    
Moisture  
Dew Point 50 °F    
Average Humidity 64    
Maximum Humidity 80    
Minimum Humidity 42    
Precipitation  
Precipitation 0.00 in - - ()
Sea Level Pressure  
Sea Level Pressure 29.81 in    
Wind  
Wind Speed 11 mph (SE)    
Max Wind Speed 21 mph    
Max Gust Speed 30 mph    
Visibility 10 miles    
Events      
Averages and records for this station are not official NWS values.
T = Trace of Precipitation, MM = Missing Value Source: NWS Daily Summary

Daily Weather History Graph

Daily Weather History Graph

Search for Another Location

Airport or City:

Astronomy

Oct. 09, 2019 Rise Set
Actual Time 7:29 AM CDT 6:48 PM CDT
Civil Twilight 7:00 AM CDT 7:17 PM CDT
Nautical Twilight 6:26 AM CDT 7:51 PM CDT
Astronomical Twilight 5:52 AM CDT 8:25 PM CDT
Moon 5:33 PM CDT (10/9) 3:03 AM CDT (10/9)
Length of Visible Light 12h 17m
Length of Day
11h 18m
Waxing Gibbous, 85% of the Moon is Illuminated
Oct 9
Waxing Gibbous
Oct 13
Full
Oct 21
Last Quarter
Oct 27
New
Nov 4
First Quarter

Hourly Weather History & Observations

Time (CDT) Temp. Dew Point Humidity Pressure Visibility Wind Dir Wind Speed Gust Speed Precip Events Conditions
12:15 AM 58.1 °F 45.9 °F 64% 29.83 in 10.0 mi SE 6.9 mph - N/A   Clear
12:19 AM 57.7 °F 46.0 °F 65% 29.83 in 10.0 mi ESE 6.9 mph - N/A   Clear
12:38 AM 56.8 °F 46.4 °F 68% 29.82 in 10.0 mi SE 8.1 mph - N/A   Clear
12:55 AM 56.1 °F 46.4 °F 70% 29.82 in 10.0 mi SE 6.9 mph - N/A   Clear
1:15 AM 55.9 °F 46.8 °F 71% 29.81 in 10.0 mi SE 9.2 mph - N/A   Clear
1:16 AM 55.9 °F 46.8 °F 71% 29.81 in 10.0 mi SE 9.2 mph - N/A   Clear
1:35 AM 55.8 °F 46.8 °F 72% 29.81 in 10.0 mi SE 10.4 mph - N/A   Clear
1:58 AM 55.9 °F 46.8 °F 71% 29.81 in 10.0 mi SE 13.8 mph 19.6 mph N/A   Clear
2:17 AM 55.9 °F 47.3 °F 73% 29.81 in 10.0 mi SE 12.7 mph - N/A   Clear
2:36 AM 55.9 °F 47.3 °F 73% 29.81 in 10.0 mi SE 8.1 mph - N/A   Clear
2:55 AM 55.2 °F 47.1 °F 74% 29.80 in 10.0 mi SE 10.4 mph 16.1 mph N/A   Clear
2:56 AM 55.0 °F 47.1 °F 75% 29.80 in 10.0 mi SE 9.2 mph 16.1 mph N/A   Clear
3:15 AM 55.4 °F 47.3 °F 74% 29.80 in 10.0 mi SE 11.5 mph - N/A   Clear
3:37 AM 55.8 °F 47.7 °F 74% 29.80 in 10.0 mi ESE 10.4 mph 16.1 mph N/A   Clear
3:56 AM 55.6 °F 48.0 °F 76% 29.79 in 10.0 mi SE 11.5 mph 16.1 mph N/A   Clear
4:15 AM 55.9 °F 48.2 °F 75% 29.79 in 10.0 mi SE 11.5 mph 18.4 mph N/A   Clear
4:16 AM 55.9 °F 48.2 °F 75% 29.79 in 10.0 mi SE 10.4 mph 18.4 mph N/A   Clear
4:35 AM 55.9 °F 48.2 °F 75% 29.79 in 10.0 mi SE 12.7 mph 19.6 mph N/A   Clear
4:36 AM 55.9 °F 48.2 °F 75% 29.79 in 10.0 mi SE 11.5 mph 19.6 mph N/A   Clear
4:59 AM 55.4 °F 48.2 °F 77% 29.78 in 10.0 mi SE 10.4 mph 17.3 mph N/A   Clear
5:16 AM 55.0 °F 48.6 °F 79% 29.78 in 10.0 mi SE 10.4 mph 16.1 mph N/A   Clear
5:36 AM 55.0 °F 48.6 °F 79% 29.78 in 10.0 mi SE 12.7 mph - N/A   Clear
5:55 AM 55.0 °F 48.7 °F 79% 29.78 in 10.0 mi SE 12.7 mph 18.4 mph N/A   Clear
6:15 AM 55.0 °F 48.7 °F 79% 29.78 in 10.0 mi SE 11.5 mph 18.4 mph N/A   Clear
6:19 AM 55.0 °F 48.7 °F 79% 29.78 in 10.0 mi SE 10.4 mph 17.3 mph N/A   Clear
6:37 AM 55.0 °F 48.9 °F 80% 29.78 in 10.0 mi SE 11.5 mph 19.6 mph N/A   Clear
6:56 AM 55.0 °F 48.7 °F 79% 29.78 in 10.0 mi SE 12.7 mph - N/A   Clear
7:15 AM 55.2 °F 48.9 °F 79% 29.78 in 10.0 mi SE 12.7 mph 18.4 mph N/A   Clear
7:16 AM 55.0 °F 48.7 °F 79% 29.78 in 10.0 mi SE 11.5 mph 18.4 mph N/A   Clear
7:35 AM 55.0 °F 49.1 °F 80% 29.78 in 10.0 mi SE 11.5 mph - N/A   Clear
7:58 AM 55.6 °F 49.1 °F 79% 29.78 in 10.0 mi SE 12.7 mph 16.1 mph N/A   Clear
8:15 AM 56.1 °F 49.1 °F 77% 29.78 in 10.0 mi SE 12.7 mph 18.4 mph N/A   Clear
8:36 AM 56.8 °F 49.1 °F 75% 29.79 in 10.0 mi SE 13.8 mph - N/A   Clear
8:55 AM 58.1 °F 49.3 °F 72% 29.78 in 10.0 mi SE 12.7 mph 19.6 mph N/A   Clear
8:56 AM 58.1 °F 49.3 °F 72% 29.78 in 10.0 mi SE 12.7 mph 19.6 mph N/A   Clear
9:19 AM 59.4 °F 49.5 °F 70% 29.79 in 10.0 mi SE 15.0 mph 19.6 mph N/A   Clear
9:36 AM 60.4 °F 49.5 °F 67% 29.79 in 10.0 mi SE 15.0 mph 21.9 mph N/A   Clear
9:56 AM 62.1 °F 49.8 °F 64% 29.79 in 10.0 mi SSE 12.7 mph 20.7 mph N/A   Clear
10:15 AM 63.5 °F 50.0 °F 61% 29.81 in 10.0 mi SSE 13.8 mph 21.9 mph N/A   Clear
10:35 AM 64.8 °F 49.6 °F 58% 29.81 in 10.0 mi SSE 18.4 mph 25.3 mph N/A   Clear
10:39 AM 64.8 °F 49.6 °F 58% 29.81 in 10.0 mi SSE 18.4 mph 26.5 mph N/A   Clear
10:57 AM 65.7 °F 49.8 °F 57% 29.81 in 10.0 mi SSE 17.3 mph 25.3 mph N/A   Clear
11:16 AM 66.9 °F 50.2 °F 55% 29.80 in 10.0 mi SSE 13.8 mph 26.5 mph N/A   Clear
11:35 AM 68.2 °F 50.2 °F 53% 29.80 in 10.0 mi SSE 17.3 mph 26.5 mph N/A   Clear
11:36 AM 68.2 °F 50.2 °F 53% 29.80 in 10.0 mi SSE 16.1 mph 26.5 mph N/A   Clear
11:55 AM 69.3 °F 49.8 °F 50% 29.80 in 10.0 mi SSE 15.0 mph 26.5 mph N/A   Clear
11:56 AM 69.4 °F 50.0 °F 50% 29.80 in 10.0 mi SSE 18.4 mph 26.5 mph N/A   Clear
12:18 PM 70.7 °F 50.4 °F 48% 29.79 in 10.0 mi SSE 16.1 mph 24.2 mph N/A   Clear
12:36 PM 71.8 °F 50.5 °F 47% 29.78 in 10.0 mi SE 12.7 mph 24.2 mph N/A   Clear
12:55 PM 72.7 °F 50.7 °F 46% 29.78 in 10.0 mi SE 18.4 mph 24.2 mph N/A   Clear
12:56 PM 72.7 °F 50.7 °F 46% 29.78 in 10.0 mi SE 17.3 mph 24.2 mph N/A   Clear
1:15 PM 72.7 °F 50.4 °F 45% 29.77 in 10.0 mi SE 19.6 mph 25.3 mph N/A   Clear
1:16 PM 72.7 °F 50.2 °F 45% 29.77 in 10.0 mi SSE 19.6 mph 26.5 mph N/A   Clear
1:35 PM 73.4 °F 50.4 °F 44% 29.77 in 10.0 mi SE 18.4 mph 23.0 mph N/A   Clear
1:39 PM 73.6 °F 50.5 °F 44% 29.76 in 10.0 mi SE 17.3 mph 23.0 mph N/A   Clear
1:58 PM 73.6 °F 51.1 °F 45% 29.76 in 10.0 mi SSE 15.0 mph 28.8 mph N/A   Clear
2:16 PM 75.2 °F 50.9 °F 42% 29.76 in 10.0 mi SSE 15.0 mph 29.9 mph N/A   Clear
2:35 PM 75.2 °F 51.3 °F 43% 29.76 in 10.0 mi SSE 17.3 mph 26.5 mph N/A   Scattered Clouds
2:36 PM 75.2 °F 51.4 °F 43% 29.76 in 10.0 mi South 18.4 mph 26.5 mph N/A   Scattered Clouds
2:56 PM 73.8 °F 51.6 °F 46% 29.76 in 10.0 mi SSE 17.3 mph 24.2 mph N/A   Scattered Clouds
3:18 PM 75.2 °F 52.7 °F 45% 29.76 in 10.0 mi SSE 18.4 mph 25.3 mph N/A   Scattered Clouds
3:37 PM 76.1 °F 52.2 °F 43% 29.76 in 10.0 mi SSE 20.7 mph 25.3 mph N/A   Clear
3:56 PM 75.2 °F 53.1 °F 46% 29.76 in 10.0 mi SSE 15.0 mph 27.6 mph N/A   Scattered Clouds
4:15 PM 74.1 °F 52.9 °F 47% 29.77 in 10.0 mi SSE 20.7 mph - N/A   Scattered Clouds
4:16 PM 74.3 °F 53.2 °F 48% 29.77 in 10.0 mi South 20.7 mph - N/A   Scattered Clouds
4:35 PM 72.7 °F 53.6 °F 51% 29.78 in 10.0 mi SSE 18.4 mph 25.3 mph N/A   Mostly Cloudy
4:57 PM 71.8 °F 53.1 °F 52% 29.79 in 10.0 mi SE 17.3 mph 23.0 mph N/A   Mostly Cloudy
5:15 PM 70.7 °F 52.7 °F 53% 29.80 in 10.0 mi SE 10.4 mph 21.9 mph N/A   Scattered Clouds
5:35 PM 69.4 °F 52.9 °F 56% 29.80 in 10.0 mi SE 11.5 mph - N/A   Clear
5:55 PM 69.4 °F 53.2 °F 56% 29.81 in 10.0 mi SE 10.4 mph 16.1 mph N/A   Scattered Clouds
5:56 PM 69.3 °F 53.2 °F 57% 29.81 in 10.0 mi SE 10.4 mph 16.1 mph N/A   Scattered Clouds
6:19 PM 68.2 °F 53.2 °F 59% 29.81 in 10.0 mi ESE 8.1 mph - N/A   Mostly Cloudy
6:36 PM 67.3 °F 53.6 °F 61% 29.81 in 10.0 mi ESE 8.1 mph - N/A   Mostly Cloudy
6:56 PM 67.1 °F 53.6 °F 62% 29.82 in 10.0 mi SE 6.9 mph - N/A   Overcast
7:15 PM 67.1 °F 53.6 °F 62% 29.82 in 10.0 mi SE 10.4 mph - N/A   Mostly Cloudy
7:16 PM 67.1 °F 53.6 °F 62% 29.82 in 10.0 mi SE 11.5 mph - N/A   Mostly Cloudy
7:35 PM 66.9 °F 53.2 °F 61% 29.83 in 10.0 mi SE 11.5 mph 17.3 mph N/A   Mostly Cloudy
7:39 PM 66.6 °F 53.2 °F 62% 29.83 in 10.0 mi SE 11.5 mph 17.3 mph N/A   Mostly Cloudy
7:57 PM 66.4 °F 52.9 °F 62% 29.83 in 10.0 mi SE 12.7 mph 20.7 mph N/A   Scattered Clouds
8:16 PM 66.0 °F 52.3 °F 61% 29.85 in 10.0 mi SE 11.5 mph 20.7 mph N/A   Scattered Clouds
8:35 PM 65.3 °F 52.0 °F 62% 29.85 in 10.0 mi SE 12.7 mph 19.6 mph N/A   Scattered Clouds
8:36 PM 65.3 °F 51.8 °F 62% 29.85 in 10.0 mi SE 11.5 mph 19.6 mph N/A   Scattered Clouds
8:55 PM 63.9 °F 51.3 °F 64% 29.86 in 10.0 mi SSE 11.5 mph 17.3 mph N/A   Scattered Clouds
8:56 PM 63.9 °F 51.3 °F 64% 29.86 in 10.0 mi SSE 12.7 mph 17.3 mph N/A   Scattered Clouds
9:18 PM 63.3 °F 50.9 °F 64% 29.86 in 10.0 mi SE 9.2 mph - N/A   Clear
9:36 PM 61.9 °F 50.7 °F 67% 29.87 in 10.0 mi SE 6.9 mph - N/A   Clear
9:55 PM 60.8 °F 50.2 °F 68% 29.88 in 10.0 mi SE 5.8 mph - N/A   Clear
9:56 PM 60.8 °F 50.2 °F 68% 29.88 in 10.0 mi SE 6.9 mph - N/A   Clear
10:15 PM 59.4 °F 50.0 °F 71% 29.88 in 10.0 mi SE 4.6 mph - N/A   Clear
10:16 PM 59.4 °F 50.0 °F 71% 29.89 in 10.0 mi SE 5.8 mph - N/A   Clear
10:35 PM 58.6 °F 50.0 °F 73% 29.89 in 10.0 mi ESE 4.6 mph - N/A   Scattered Clouds
10:39 PM 58.5 °F 50.0 °F 73% 29.89 in 10.0 mi ESE 4.6 mph - N/A   Scattered Clouds
10:58 PM 59.2 °F 49.6 °F 71% 29.89 in 10.0 mi ESE 4.6 mph - N/A   Mostly Cloudy
11:15 PM 59.4 °F 49.6 °F 70% 29.90 in 10.0 mi ESE 5.8 mph - N/A   Overcast
11:35 PM 59.4 °F 49.3 °F 69% 29.90 in 10.0 mi SE 6.9 mph - N/A   Overcast
11:36 PM 59.4 °F 49.3 °F 69% 29.90 in 10.0 mi SE 6.9 mph - N/A   Overcast
11:55 PM 59.0 °F 49.3 °F 70% 29.91 in 10.0 mi SE 5.8 mph - N/A   Overcast
11:56 PM 59.0 °F 49.3 °F 70% 29.91 in 10.0 mi SE 4.6 mph - N/A   Overcast